When you browse on this site, cookies collect data to enhance your experience and personalize the content and advertising you see.
Visit our Privacy Policy to learn more. By continuing to use the site, you agree to this use of cookies and data.
  • în România
  • Lista ţărilor
  • Pe 7 zile
  • Temperatura apei
  • Hartă satelitară
  • Meteo pe hartă
  • Widget-uri
  • user-avatar
    Intrare

    Meteo pe oră la Danville

    Astăzi, 22 Mai, Miercuri

    Timp Temperatura Precipitaţii Vânt Presiune Umiditate
    00:00 +15°C° 0.3 mm 8 m/s 741 mmHg 75%
    01:00 +16°C° 2.3 mm 6 m/s 741 mmHg 82%
    02:00 +16°C° 2.3 mm 5 m/s 741 mmHg 88%
    03:00 +17°C° 2.3 mm 3 m/s 742 mmHg 95%
    04:00 +17°C° 1 mm 3 m/s 742 mmHg 95%
    05:00 +17°C° 1 mm 4 m/s 742 mmHg 94%
    06:00 +17°C° 1 mm 4 m/s 742 mmHg 94%
    07:00 +19°C° 0 mm 5 m/s 743 mmHg 89%
    08:00 +21°C° 0 mm 5 m/s 743 mmHg 84%
    09:00 +22°C° 0 mm 6 m/s 743 mmHg 79%
    10:00 +23°C° 0 mm 6 m/s 743 mmHg 78%
    11:00 +24°C° 0 mm 6 m/s 743 mmHg 77%
    12:00 +26°C° 0 mm 6 m/s 743 mmHg 75%
    13:00 +27°C° 0 mm 6 m/s 743 mmHg 73%
    14:00 +27°C° 0 mm 6 m/s 743 mmHg 71%
    15:00 +28°C° 0 mm 6 m/s 743 mmHg 69%
    16:00 +28°C° 0 mm 5 m/s 743 mmHg 72%
    17:00 +27°C° 0 mm 4 m/s 743 mmHg 75%
    18:00 +27°C° 0 mm 4 m/s 743 mmHg 77%
    19:00 +26°C° 0 mm 4 m/s 743 mmHg 82%
    20:00 +25°C° 0 mm 4 m/s 743 mmHg 87%
    21:00 +22°C° 0 mm 4 m/s 744 mmHg 92%
    22:00 +23°C° 0.3 mm 5 m/s 744 mmHg 92%
    23:00 +23°C° 0.3 mm 5 m/s 744 mmHg 93%

    Mâine, 23 Mai, Joi

    Timp Temperatura Precipitaţii Vânt Presiune Umiditate
    00:00 +23°C° 0.3 mm 6 m/s 744 mmHg 93%
    01:00 +23°C° 1.5 mm 6 m/s 744 mmHg 93%
    02:00 +23°C° 1.5 mm 5 m/s 744 mmHg 92%
    03:00 +22°C° 1.5 mm 5 m/s 745 mmHg 92%
    04:00 +22°C° 1.6 mm 5 m/s 745 mmHg 91%
    05:00 +22°C° 1.6 mm 5 m/s 745 mmHg 89%
    06:00 +23°C° 1.6 mm 5 m/s 745 mmHg 88%
    07:00 +25°C° 0 mm 5 m/s 746 mmHg 85%
    08:00 +26°C° 0 mm 5 m/s 746 mmHg 81%
    09:00 +27°C° 0 mm 5 m/s 747 mmHg 78%
    10:00 +28°C° 0 mm 5 m/s 747 mmHg 71%
    11:00 +29°C° 0 mm 4 m/s 747 mmHg 64%
    12:00 +29°C° 0 mm 4 m/s 747 mmHg 58%
    13:00 +30°C° 0 mm 4 m/s 747 mmHg 55%
    14:00 +30°C° 0 mm 4 m/s 747 mmHg 52%
    15:00 +30°C° 0 mm 5 m/s 747 mmHg 49%
    16:00 +29°C° 0 mm 4 m/s 747 mmHg 55%
    17:00 +28°C° 0 mm 3 m/s 747 mmHg 60%
    18:00 +26°C° 0 mm 3 m/s 747 mmHg 65%
    19:00 +25°C° 0 mm 2 m/s 748 mmHg 68%
    20:00 +23°C° 0 mm 2 m/s 748 mmHg 71%
    21:00 +20°C° 0 mm 2 m/s 749 mmHg 74%
    22:00 +20°C° 0 mm 2 m/s 749 mmHg 75%
    23:00 +19°C° 0 mm 2 m/s 749 mmHg 75%

    Poimâine, 24 Mai, Vineri

    Timp Temperatura Precipitaţii Vânt Presiune Umiditate
    00:00 +18°C° 0 mm 2 m/s 749 mmHg 76%
    01:00 +18°C° 0 mm 2 m/s 749 mmHg 77%
    02:00 +18°C° 0 mm 2 m/s 748 mmHg 78%
    03:00 +17°C° 0 mm 2 m/s 748 mmHg 79%
    04:00 +17°C° 0 mm 3 m/s 749 mmHg 79%
    05:00 +18°C° 0 mm 3 m/s 749 mmHg 79%
    06:00 +18°C° 0 mm 3 m/s 749 mmHg 80%
    07:00 +18°C° 0 mm 3 m/s 749 mmHg 79%
    08:00 +19°C° 0 mm 3 m/s 749 mmHg 79%
    09:00 +20°C° 0 mm 3 m/s 749 mmHg 79%
    10:00 +22°C° 0 mm 4 m/s 749 mmHg 77%
    11:00 +26°C° 0 mm 4 m/s 748 mmHg 74%
    12:00 +28°C° 0 mm 4 m/s 748 mmHg 72%
    13:00 +29°C° 0 mm 4 m/s 747 mmHg 69%
    14:00 +30°C° 0 mm 5 m/s 746 mmHg 66%
    15:00 +32°C° 0 mm 5 m/s 746 mmHg 62%
    16:00 +30°C° 0 mm 5 m/s 745 mmHg 66%
    17:00 +29°C° 0 mm 5 m/s 745 mmHg 70%
    18:00 +29°C° 0 mm 4 m/s 745 mmHg 75%
    19:00 +27°C° 0 mm 4 m/s 745 mmHg 78%
    20:00 +26°C° 0 mm 4 m/s 745 mmHg 81%
    21:00 +25°C° 0 mm 4 m/s 745 mmHg 85%
    22:00 +25°C° 0.2 mm 4 m/s 745 mmHg 85%
    23:00 +23°C° 0.2 mm 4 m/s 745 mmHg 86%

    25 Mai, Sâmbătă

    Timp Temperatura Precipitaţii Vânt Presiune Umiditate
    00:00 +23°C° 0.2 mm 4 m/s 745 mmHg 87%
    01:00 +23°C° 0.1 mm 5 m/s 745 mmHg 87%
    02:00 +23°C° 0.1 mm 5 m/s 745 mmHg 86%
    03:00 +22°C° 0.1 mm 5 m/s 744 mmHg 86%
    04:00 +23°C° 0 mm 5 m/s 745 mmHg 85%
    05:00 +23°C° 0 mm 5 m/s 745 mmHg 85%
    06:00 +23°C° 0 mm 5 m/s 745 mmHg 84%
    07:00 +26°C° 0 mm 6 m/s 745 mmHg 77%
    08:00 +27°C° 0 mm 6 m/s 745 mmHg 71%
    09:00 +29°C° 0 mm 7 m/s 746 mmHg 64%
    10:00 +30°C° 0 mm 7 m/s 745 mmHg 63%
    11:00 +30°C° 0 mm 7 m/s 745 mmHg 62%
    12:00 +30°C° 0 mm 7 m/s 745 mmHg 61%
    13:00 +30°C° 0.4 mm 7 m/s 745 mmHg 65%
    14:00 +29°C° 0.4 mm 6 m/s 745 mmHg 69%
    15:00 +28°C° 0.4 mm 5 m/s 745 mmHg 73%
    16:00 +28°C° 0 mm 4 m/s 744 mmHg 74%
    17:00 +27°C° 0 mm 3 m/s 744 mmHg 76%
    18:00 +27°C° 0 mm 3 m/s 744 mmHg 77%
    19:00 +26°C° 1.3 mm 3 m/s 744 mmHg 82%
    20:00 +25°C° 1.3 mm 3 m/s 744 mmHg 86%
    21:00 +24°C° 1.3 mm 3 m/s 745 mmHg 90%
    22:00 +24°C° 1.1 mm 3 m/s 744 mmHg 91%
    23:00 +24°C° 1.1 mm 3 m/s 744 mmHg 92%

    26 Mai, Duminică

    Timp Temperatura Precipitaţii Vânt Presiune Umiditate
    00:00 +22°C° 1.1 mm 3 m/s 744 mmHg 93%
    01:00 +22°C° 0 mm 3 m/s 744 mmHg 93%
    02:00 +22°C° 0 mm 3 m/s 744 mmHg 94%
    03:00 +22°C° 0 mm 3 m/s 744 mmHg 94%
    04:00 +22°C° 0.6 mm 3 m/s 744 mmHg 94%
    05:00 +22°C° 0.6 mm 3 m/s 745 mmHg 93%
    06:00 +22°C° 0.6 mm 3 m/s 745 mmHg 92%
    07:00 +25°C° 0.3 mm 3 m/s 746 mmHg 89%
    08:00 +26°C° 0.3 mm 3 m/s 746 mmHg 85%
    09:00 +27°C° 0.3 mm 4 m/s 746 mmHg 81%
    10:00 +27°C° 1.4 mm 4 m/s 746 mmHg 79%
    11:00 +28°C° 1.4 mm 4 m/s 746 mmHg 76%
    12:00 +28°C° 1.4 mm 4 m/s 746 mmHg 73%
    13:00 +27°C° 3.9 mm 4 m/s 745 mmHg 75%
    14:00 +27°C° 3.9 mm 3 m/s 745 mmHg 77%
    15:00 +26°C° 3.9 mm 2 m/s 745 mmHg 80%
    16:00 +26°C° 0.2 mm 2 m/s 745 mmHg 78%
    17:00 +26°C° 0.2 mm 1 m/s 745 mmHg 77%
    18:00 +27°C° 0.2 mm 1 m/s 745 mmHg 76%
    19:00 +25°C° 0 mm 1 m/s 745 mmHg 79%
    20:00 +24°C° 0 mm 1 m/s 745 mmHg 82%
    21:00 +23°C° 0 mm 1 m/s 745 mmHg 85%
    22:00 +23°C° 0 mm 1 m/s 745 mmHg 87%
    23:00 +22°C° 0 mm 1 m/s 745 mmHg 89%

    27 Mai, Luni

    Timp Temperatura Precipitaţii Vânt Presiune Umiditate
    00:00 +22°C° 0 mm 1 m/s 745 mmHg 92%
    01:00 +22°C° 0.3 mm 1 m/s 745 mmHg 93%
    02:00 +22°C° 0.3 mm 1 m/s 745 mmHg 94%
    03:00 +21°C° 0.3 mm 1 m/s 744 mmHg 94%
    04:00 +22°C° 1.4 mm 1 m/s 745 mmHg 94%
    05:00 +22°C° 1.4 mm 1 m/s 745 mmHg 94%
    06:00 +22°C° 1.4 mm 1 m/s 745 mmHg 94%
    07:00 +23°C° 0.1 mm 1 m/s 745 mmHg 92%
    08:00 +24°C° 0.1 mm 2 m/s 745 mmHg 90%
    09:00 +25°C° 0.1 mm 3 m/s 744 mmHg 88%
    10:00 +26°C° 1.6 mm 3 m/s 744 mmHg 81%
    11:00 +27°C° 1.6 mm 2 m/s 744 mmHg 74%
    12:00 +28°C° 1.6 mm 2 m/s 744 mmHg 67%
    13:00 +26°C° 2.7 mm 2 m/s 744 mmHg 75%
    14:00 +24°C° 2.7 mm 2 m/s 743 mmHg 83%
    15:00 +21°C° 2.7 mm 2 m/s 743 mmHg 91%
    16:00 +23°C° 0.5 mm 2 m/s 743 mmHg 91%
    17:00 +23°C° 0.5 mm 2 m/s 743 mmHg 90%
    18:00 +23°C° 0.5 mm 2 m/s 743 mmHg 90%
    19:00 +21°C° 0 mm 3 m/s 743 mmHg 92%
    20:00 +20°C° 0 mm 3 m/s 743 mmHg 94%
    21:00 +19°C° 0 mm 3 m/s 743 mmHg 97%
    22:00 +19°C° 0 mm 2 m/s 742 mmHg 97%
    23:00 +18°C° 0 mm 2 m/s 742 mmHg 97%
    Arată mai mult